SCP
0 0 -0 -0 -0 0 0 -0 0 0 -0 0 0 0 0 0 0 0 -0 -0 0 0 -0 -0 0 0 0 0 0 0 0 0 0 0 0 0 0 0 0 0 0 0 0 0 0 0 0 0 0
0 -0 0 -0 0 0 -0 -0 0 0 -0 0 0 0 0 0 0 0 0 -0 0 -0 -0 0 0 0 0 0 0 0 0 0 0 0 0 0 0 0 0 0 0 0 0 0 0 0 0 0 0
-0 -0 -0 0 0 0 -0 -0 0 -0 -0 0 0 0 0 0 0 0 0 0 0 0 0 0 0 0 0 0 0 0 0 0 0 0 0 0 0 0 0 0 0 0 0 0 0 0 0 0 0
0 0 0 0 0 0 0 0 0 -0 -0 0 0 0 0 -0 0 0 0 0 0 0 0 0 0 0 0 0 0 0 0 0 0 0 0 0 0 0 0 0 0 0 0 0 0 0 0 0 0
-0 0 0 0 0 0 0 0 0 0 -0 -0 0 0 0 -0 -0 0 0 0 0 0 0 1 0 0 0 0 0 0 0 0 0 0 0 0 0 0 0 0 0 0 0 0 0 0 0 0 0
0 0 0 0 0 0 0 0 0 0 0 -0 0 0 0 0 0 0 0 0 0 0 0 0 1 0 0 0 0 0 0 0 0 0 0 0 0 0 0 0 0 0 0 0 0 0 0 0 0
0 0 0 0 0 0 0 0 -0 0 0 -0 0 0 0 0 0 0 0 0 0 0 0 0 0 0 0 0 0 0 0 0 0 0 0 0 0 0 0 0 0 0 0 0 0 0 0 0 0
0 0 0 0 0 0 0 0 0 0 0 0 0 0 0 0 0 0 0 0 0 0 0 0 0 0 0 0 0 0 0 0 0 0 0 0 0 0 0 0 0 0 0 0 0 0 0 0 0
0 0 0 0 0 0 0 0 0 -0 0 0 0 0 0 0 0 0 0 0 0 0 0 0 0 0 0 0 0 0 0 0 0 0 0 0 0 0 0 0 0 0 0 0 0 0 0 0 0
0 0 0 0 0 0 0 0 0 0 0 0 0 0 0 0 0 0 0 0 0 0 0 0 0 0 0 0 0 0 0 0 0 0 0 0 0 0 0 0 0 0 0 0 0 0 0 0 0
0 0 0 0 0 0 0 0 0 0 0 0 -0 0 0 0 0 0 0 0 0 0 0 0 0 0 0 0 0 0 0 0 0 0 0 0 0 0 0 0 0 0 0 0 0 0 0 0 0
0 -0 0 0 0 0 0 0 0 0 0 0 0 0 0 0 0 0 0 0 0 0 0 0 0 0 0 0 0 0 0 0 0 0 0 0 0 0 0 0 0 0 0 0 0 0 0 0 0
0 0 0 0 0 0 0 0 0 0 0 0 0 0 0 0 0 0 0 0 0 0 0 0 0 0 0 0 0 0 0 0 0 0 0 0 0 0 0 0 0 0 0 0 0 0 0 0 0
0 0 0 0 0 0 0 0 0 0 0 0 0 0 0 0 0 0 0 0 0 0 0 0 0 0 0 0 0 0 0 0 0 0 0 0 0 0 0 0 0 0 0 0 0 0 0 0 0
0 0 0 0 0 0 0 0 0 0 0 0 0 0 0 0 0 0 0 0 0 0 0 0 0 0 0 0 0 0 0 0 0 0 0 0 0 0 0 0 0 0 0 0 0 0 0 0 0
0 0 0 0 0 0 0 0 0 0 -0 0 0 0 0 0 0 0 0 0 0 0 0 0 0 0 0 0 0 0 0 0 0 0 0 0 0 0 0 0 0 0 0 0 0 0 0 0 0
0 0 0 0 0 0 0 0 0 -0 -0 -0 0 0 0 0 0 0 0 0 0 0 0 0 0 0 0 0 0 0 0 0 0 0 0 0 0 0 0 0 0 0 0 0 0 0 0 0 0
0 0 0 0 0 0 0 -0 0 -0 -0 -0 -0 0 0 0 0 0 0 0 0 0 0 0 0 0 0 0 0 0 0 0 0 0 0 0 0 0 0 0 0 0 0 0 0 0 0 0 0
0 0 0 0 0 0 0 0 0 -0 -0 0 0 -0 0 0 0 0 0 0 0 0 0 0 0 0 0 0 0 0 0 0 0 0 0 0 0 0 0 0 0 0 0 0 0 0 0 0 0
0 0 0 0 0 0 0 0 0 -0 -0 -0 0 0 0 0 0 0 0 0 0 0 0 0 0 0 0 0 0 0 0 0 0 0 0 0 0 0 0 0 0 0 0 0 0 0 0 0 0
0 0 0 0 0 0 0 0 0 0 0 0 0 0 0 0 0 0 0 0 0 0 0 0 0 0 0 0 0 0 0 0 0 0 0 0 0 0 0 0 0 0 0 0 0 0 0 0 0
0 0 0 0 0 0 0 0 0 0 0 0 0 0 0 0 0 0 0 0 0 0 0 0 0 0 0 0 0 0 0 0 0 0 0 0 0 0 0 0 0 0 0 0 0 0 0 0 0
0 0 0 0 0 0 0 0 0 0 0 0 0 0 0 0 0 0 0 0 0 0 0 0 0 0 0 0 0 0 0 0 0 0 0 0 0 0 0 0 0 0 0 0 0 0 0 0 0
0 0 0 0 0 0 0 0 0 0 0 0 0 0 0 0 0 0 0 0 0 0 0 0 0 0 0 0 0 0 0 0 0 0 0 0 0 0 0 0 0 0 0 0 0 0 0 0 0
0 0 0 0 0 0 0 0 0 0 0 0 0 0 0 0 0 0 0 0 0 0 0 0 0 0 0 0 0 0 0 0 0 0 0 0 0 0 0 0 0 0 0 0 0 0 0 0 0
0 0 0 0 0 0 0 0 0 0 0 0 0 0 0 0 0 0 0 0 0 0 0 -0 0 0 0 0 0 0 0 0 0 0 0 0 0 0 0 0 0 0 0 0 0 0 0 0 0
0 0 0 0 0 0 0 0 0 0 0 0 0 0 0 0 0 0 0 0 0 -0 -0 0 0 0 0 0 0 0 0 0 0 0 0 0 0 0 0 0 0 0 0 0 0 0 0 0 0
0 0 0 0 0 0 0 0 0 0 0 0 0 0 0 0 0 0 0 0 0 0 0 0 0 0 0 0 0 0 0 0 0 0 0 0 0 0 0 0 0 0 0 0 0 0 0 0 0
0 0 0 0 0 0 0 0 0 0 0 0 0 0 0 0 0 0 0 0 0 0 0 0 0 0 0 0 0 0 0 0 0 0 0 0 0 0 0 0 0 0 0 0 0 0 0 0 0
0 0 0 0 0 0 0 0 0 0 0 0 0 0 0 0 0 0 0 0 0 0 0 0 0 0 0 0 0 0 0 0 0 0 0 0 0 0 0 0 0 0 0 0 0 0 0 0 0
Wind_Speed_500mb
29 30 15 11 8 11 5 9 4 5 8 12 22 11 20 16 4 5 25 19 17 13 22 17 12 9 9 10 11 13 14 16 16 15 14 15 15 16 19 22 23 25 23 22 20 18 20 21 23
26 20 15 8 10 9 7 10 8 8 37 51 44 31 24 6 16 22 25 17 12 13 17 15 15 15 12 10 12 15 16 17 16 15 13 12 15 16 18 22 25 27 28 27 21 15 16 20 24
24 18 11 9 6 6 3 4 16 22 20 4 11 19 11 7 11 10 20 15 15 13 11 11 15 15 11 10 13 18 20 20 18 16 14 14 14 15 21 23 25 23 21 20 18 16 14 15 16
7 6 18 10 7 6 8 7 25 26 26 29 27 13 15 16 10 18 19 17 15 10 6 5 8 9 8 6 12 20 28 20 13 11 10 8 12 17 21 23 29 30 25 24 18 13 12 13 14
14 15 12 8 11 8 13 4 5 9 11 29 28 14 11 19 25 25 24 20 16 10 5 0 7 7 9 10 14 24 28 17 13 11 10 11 13 16 18 22 30 28 25 21 20 18 17 13 15
13 9 9 7 6 8 5 12 10 17 29 36 34 25 10 25 28 28 24 19 14 3 4 4 2 6 7 9 12 21 28 26 18 14 14 14 11 15 12 13 19 19 16 16 19 16 14 13 14
10 7 9 8 2 6 7 6 6 7 15 7 20 10 14 36 23 23 16 10 4 5 6 5 6 2 5 4 11 18 22 26 29 21 13 11 12 15 11 6 12 15 17 20 21 14 12 11 9
12 11 6 8 11 8 8 7 12 4 6 20 18 10 13 40 29 21 11 0 11 15 16 16 9 7 3 5 12 13 21 29 34 20 11 13 15 13 11 14 12 19 20 21 22 17 17 11 9
12 9 3 12 13 8 12 7 6 3 21 10 7 35 42 40 27 15 2 7 13 17 17 18 9 14 8 6 3 10 18 29 30 21 8 13 15 15 17 20 22 24 28 27 22 19 22 18 6
7 7 16 12 12 8 22 14 25 13 12 25 39 42 43 37 29 10 2 8 15 17 16 15 6 17 13 9 2 7 14 27 24 22 11 13 11 12 16 22 24 25 20 17 17 16 18 13 8
7 7 12 14 17 31 21 20 11 39 6 46 59 52 43 32 18 6 12 16 17 14 13 10 10 11 17 11 5 7 14 23 19 19 19 17 14 12 16 20 23 16 13 18 20 19 17 13 12
6 3 20 24 31 36 27 18 11 9 12 45 49 47 42 29 10 9 14 13 14 12 10 4 15 18 17 14 13 15 18 19 19 20 24 19 17 10 15 22 20 18 21 25 27 25 20 14 14
7 2 20 35 49 35 31 23 18 26 24 46 47 41 29 19 12 12 10 10 12 12 9 5 11 26 26 21 23 22 18 15 18 20 27 25 22 14 17 24 24 23 27 32 30 29 21 12 14
2 8 17 31 37 36 30 10 25 22 42 52 48 39 31 25 20 20 12 9 13 12 9 6 6 18 28 28 24 18 14 14 13 20 32 27 23 19 20 24 24 25 25 33 34 33 23 18 15
8 9 8 15 28 13 34 4 12 40 54 56 48 39 35 31 27 22 13 11 12 12 9 8 5 11 15 14 12 15 11 10 11 20 32 29 23 22 22 24 26 26 28 32 35 25 22 18 15
8 8 9 10 24 21 19 15 22 52 60 60 56 49 45 40 35 29 23 17 14 12 10 10 10 12 16 15 13 6 4 5 10 14 26 30 25 22 21 25 23 25 32 35 29 27 21 16 15
11 3 6 4 24 11 12 11 27 63 57 58 62 58 53 49 48 43 36 26 16 13 13 12 12 15 16 19 14 14 11 10 12 14 22 29 25 26 28 27 27 28 34 33 31 27 26 20 14
10 4 9 11 13 14 18 25 15 65 62 56 59 61 63 61 61 50 44 35 25 16 15 12 12 17 17 17 16 22 20 14 13 14 19 26 22 28 32 33 29 29 31 32 30 28 24 22 12
8 4 10 5 13 14 21 21 14 54 54 45 50 63 71 74 65 58 50 42 34 26 21 15 11 13 17 17 18 21 21 16 14 15 16 19 20 25 31 36 34 30 29 32 33 30 27 21 11
8 5 10 9 7 5 3 6 14 43 63 49 42 48 68 72 70 66 60 55 46 32 23 20 13 12 16 20 23 21 26 23 19 16 14 15 19 22 27 34 36 30 25 25 33 31 30 30 25
7 11 11 9 4 5 2 9 12 3 18 37 39 40 62 77 80 75 75 70 56 41 25 21 17 16 16 17 22 27 25 30 23 18 16 17 21 19 24 32 36 30 23 22 27 32 31 28 25
8 16 8 7 6 2 7 7 11 6 12 23 40 60 59 74 82 87 85 80 65 47 25 27 22 17 15 18 20 26 25 25 25 19 23 22 21 18 19 28 33 29 22 21 23 26 27 29 26
4 16 7 5 6 5 7 7 14 3 9 15 42 63 61 66 72 93 94 89 68 50 32 29 27 22 16 16 19 20 24 25 24 26 25 21 20 18 18 24 28 26 21 22 22 21 22 24 28
15 11 12 7 7 8 7 6 10 7 9 11 13 26 46 66 76 80 84 86 76 54 43 36 35 27 17 13 13 19 22 23 24 27 25 22 19 20 22 26 25 27 26 18 18 23 20 22 22
14 10 7 10 9 9 3 1 17 11 16 22 20 44 47 30 51 78 79 74 74 60 42 45 42 34 21 11 6 12 14 16 16 19 25 28 28 28 26 30 27 25 27 22 20 23 27 25 22
4 9 10 8 4 9 7 7 11 7 19 13 15 20 31 35 36 54 70 67 54 51 5 66 52 38 27 14 7 7 11 11 14 17 18 20 20 22 24 29 26 25 26 25 19 22 29 31 26
6 3 10 10 4 5 5 13 17 3 10 23 14 27 28 33 34 47 61 60 69 59 19 26 57 41 28 21 19 12 12 14 16 16 17 18 19 22 25 26 27 29 29 28 28 30 31 32 31
5 7 7 6 1 6 9 9 10 9 5 2 10 13 24 27 32 40 47 47 53 55 42 8 35 40 29 26 25 18 15 15 17 19 18 20 20 23 26 27 29 31 33 34 34 35 35 40 39
4 3 12 9 8 9 4 13 11 10 3 13 8 17 27 24 26 31 35 34 25 46 55 39 39 33 33 31 30 27 21 17 20 25 26 26 26 25 29 29 30 31 32 31 36 39 41 43 44
4 7 10 9 8 1 6 13 5 8 11 14 2 12 20 20 28 20 24 29 20 22 39 55 44 30 31 29 32 34 29 24 24 27 28 30 32 30 33 33 34 35 36 36 39 45 47 50 53
Wind_Direction_500mb
78 53 67 71 66 66 3 317 76 173 50 86 116 101 93 46 78 182 143 132 116 68 47 54 50 30 6 356 343 339 336 330 327 328 328 333 334 341 342 340 337 330 325 319 318 307 296 285 284
89 63 61 58 71 48 317 336 47 79 125 100 83 78 65 54 93 129 143 125 107 55 66 56 47 40 25 15 6 360 347 335 330 332 330 330 337 345 341 337 328 321 316 310 308 307 290 290 279
72 84 65 78 81 101 198 14 133 126 140 134 101 61 58 99 112 114 119 115 82 71 65 42 32 24 18 26 18 2 345 333 326 325 322 327 333 346 342 347 349 349 333 312 304 311 303 307 309
31 75 75 72 49 254 187 194 128 114 93 106 106 70 82 106 103 119 104 105 107 106 73 37 8 6 348 15 3 1 346 336 320 310 317 329 332 338 352 6 17 22 29 38 31 4 328 308 301
36 57 56 50 10 5 44 93 294 76 83 97 113 121 93 120 131 122 122 122 139 147 130 31 357 357 355 3 6 7 3 359 333 313 307 310 326 344 7 24 27 21 30 42 33 27 23 355 326
44 51 62 45 8 337 20 101 57 112 115 109 114 107 77 132 142 138 139 143 163 194 194 234 13 32 19 17 17 16 9 12 353 328 314 322 323 326 4 32 28 9 10 26 9 13 14 14 13
88 74 113 158 27 309 181 229 251 207 140 117 131 78 116 149 147 139 134 128 177 309 321 309 318 1 341 357 2 8 9 2 357 342 300 327 331 336 0 1 6 347 349 2 350 334 326 333 328
109 84 105 196 176 239 193 184 190 344 26 124 122 142 152 143 157 144 141 334 321 326 329 324 306 204 232 284 339 357 7 356 356 354 302 298 309 312 308 322 331 326 328 326 319 308 317 324 281
108 70 169 192 162 221 175 132 237 231 140 58 73 146 151 147 152 156 181 325 341 329 327 324 288 223 205 269 292 4 359 355 350 355 313 303 302 285 286 301 299 308 317 318 315 310 315 318 282
84 106 209 188 171 172 167 175 153 142 130 103 108 131 149 154 162 166 116 357 347 331 319 308 283 209 231 239 308 4 2 348 353 15 358 333 325 280 291 299 304 307 312 307 311 324 328 312 259
149 180 183 197 167 160 158 189 168 150 210 163 151 158 168 180 195 275 345 332 326 319 302 289 229 205 211 212 245 330 344 338 348 2 7 354 337 282 298 304 316 327 316 315 311 310 316 307 275
121 229 179 162 179 162 168 175 156 154 195 177 170 170 173 185 205 310 312 313 316 321 311 291 224 223 220 236 270 298 313 320 344 360 5 357 346 329 319 325 333 331 323 323 320 325 318 273 269
56 159 196 177 165 180 166 188 170 213 172 173 169 172 183 202 239 266 284 309 323 323 313 297 212 227 239 246 269 280 286 314 342 359 3 355 345 327 332 328 328 320 326 331 332 332 327 288 264
188 113 123 178 183 166 173 186 173 197 177 174 177 189 209 235 241 235 252 281 322 319 304 276 221 217 227 243 259 257 272 317 348 0 0 355 345 335 333 332 335 332 331 340 337 332 325 317 283
74 62 30 163 160 172 153 300 229 176 178 178 186 204 224 235 234 236 251 269 295 316 317 307 269 225 212 214 240 243 275 326 4 3 359 357 350 349 335 332 338 343 344 340 335 332 323 319 303
101 66 157 213 188 179 159 251 208 175 178 187 194 209 224 231 237 232 240 250 278 306 317 302 267 240 211 182 173 208 286 353 353 342 357 360 4 1 356 351 357 357 350 348 349 351 345 328 313
36 218 237 219 216 151 207 260 193 184 190 197 202 209 222 227 228 230 235 243 266 294 313 306 272 231 210 200 191 216 249 279 298 323 347 356 7 12 10 8 2 359 357 1 3 3 3 360 352
241 232 242 217 198 175 204 253 180 191 198 202 209 215 219 226 235 230 233 237 248 274 284 287 266 229 224 231 222 220 230 250 271 297 332 351 2 11 11 14 5 0 6 14 16 14 9 10 30
169 160 263 236 214 161 220 242 220 200 211 209 208 217 220 228 235 231 231 237 242 257 260 275 268 244 238 234 222 228 230 249 270 277 315 343 351 358 4 8 4 0 6 16 22 19 19 29 73
161 198 254 310 40 112 250 311 311 198 212 209 217 224 227 231 232 232 230 236 239 249 255 264 287 270 252 242 235 234 234 249 267 267 292 319 328 336 350 1 2 357 3 15 24 30 28 22 26
210 185 228 179 87 56 341 312 330 315 222 221 227 244 237 238 237 232 232 235 236 235 246 267 288 293 261 240 238 226 235 241 259 260 284 298 311 316 337 353 359 353 0 14 23 28 27 32 26
240 198 161 148 108 248 32 287 289 321 299 250 240 235 238 242 237 239 234 233 232 233 229 253 259 281 276 247 240 237 246 251 264 260 282 289 303 299 321 344 355 349 351 4 12 15 20 26 22
272 69 56 91 121 79 357 55 274 54 274 246 252 255 253 250 253 242 239 237 231 226 226 244 243 253 274 256 248 247 247 247 253 261 276 278 288 283 301 332 350 350 341 359 11 3 4 8 13
153 76 54 47 59 26 282 106 286 265 238 301 286 306 308 267 251 248 245 239 228 218 226 232 235 240 259 256 247 254 256 264 259 256 275 279 295 287 293 321 336 348 345 339 358 9 353 349 352
51 66 5 7 1 226 28 45 242 259 242 236 319 318 323 333 263 244 239 234 227 218 230 234 237 238 246 260 268 262 267 270 272 254 277 281 293 300 301 309 318 326 335 335 328 338 348 343 329
70 128 138 248 252 272 6 248 269 240 329 42 29 340 337 333 299 255 244 227 224 212 224 259 250 245 245 275 296 279 293 307 303 290 286 296 293 305 314 307 309 318 313 329 323 315 317 323 332
170 73 164 108 16 38 261 289 314 8 28 44 14 20 347 339 308 267 245 227 226 203 230 295 252 253 260 294 303 315 322 330 337 326 313 317 308 309 308 316 300 304 309 299 299 301 304 304 307
129 123 41 21 351 305 294 288 241 303 189 15 22 350 329 314 297 266 241 235 232 216 223 288 283 256 260 279 292 299 313 330 339 343 336 323 322 313 308 313 305 301 300 301 299 298 299 295 295
344 36 56 108 126 171 275 277 212 272 220 199 265 319 324 321 319 278 253 230 238 215 220 228 262 280 256 268 294 284 287 312 323 335 335 331 324 321 314 315 311 304 300 298 295 296 299 295 296
160 157 135 123 240 222 153 276 18 99 118 169 268 320 340 345 353 299 231 220 266 256 232 235 251 280 263 267 289 279 279 293 311 326 331 331 326 321 317 314 312 312 308 303 298 299 298 295 295
Wind_Speed_850mb
29 30 15 11 8 11 5 9 4 5 8 12 22 11 20 16 4 5 25 19 17 13 22 17 12 9 9 10 11 13 14 16 16 15 14 15 15 16 19 22 23 25 23 22 20 18 20 21 23
26 20 15 8 10 9 7 10 8 8 37 51 44 31 24 6 16 22 25 17 12 13 17 15 15 15 12 10 12 15 16 17 16 15 13 12 15 16 18 22 25 27 28 27 21 15 16 20 24
24 18 11 9 6 6 3 4 16 22 20 4 11 19 11 7 11 10 20 15 15 13 11 11 15 15 11 10 13 18 20 20 18 16 14 14 14 15 21 23 25 23 21 20 18 16 14 15 16
7 6 18 10 7 6 8 7 25 26 26 29 27 13 15 16 10 18 19 17 15 10 6 5 8 9 8 6 12 20 28 20 13 11 10 8 12 17 21 23 29 30 25 24 18 13 12 13 14
14 15 12 8 11 8 13 4 5 9 11 29 28 14 11 19 25 25 24 20 16 10 5 0 7 7 9 10 14 24 28 17 13 11 10 11 13 16 18 22 30 28 25 21 20 18 17 13 15
13 9 9 7 6 8 5 12 10 17 29 36 34 25 10 25 28 28 24 19 14 3 4 4 2 6 7 9 12 21 28 26 18 14 14 14 11 15 12 13 19 19 16 16 19 16 14 13 14
10 7 9 8 2 6 7 6 6 7 15 7 20 10 14 36 23 23 16 10 4 5 6 5 6 2 5 4 11 18 22 26 29 21 13 11 12 15 11 6 12 15 17 20 21 14 12 11 9
12 11 6 8 11 8 8 7 12 4 6 20 18 10 13 40 29 21 11 0 11 15 16 16 9 7 3 5 12 13 21 29 34 20 11 13 15 13 11 14 12 19 20 21 22 17 17 11 9
12 9 3 12 13 8 12 7 6 3 21 10 7 35 42 40 27 15 2 7 13 17 17 18 9 14 8 6 3 10 18 29 30 21 8 13 15 15 17 20 22 24 28 27 22 19 22 18 6
7 7 16 12 12 8 22 14 25 13 12 25 39 42 43 37 29 10 2 8 15 17 16 15 6 17 13 9 2 7 14 27 24 22 11 13 11 12 16 22 24 25 20 17 17 16 18 13 8
7 7 12 14 17 31 21 20 11 39 6 46 59 52 43 32 18 6 12 16 17 14 13 10 10 11 17 11 5 7 14 23 19 19 19 17 14 12 16 20 23 16 13 18 20 19 17 13 12
6 3 20 24 31 36 27 18 11 9 12 45 49 47 42 29 10 9 14 13 14 12 10 4 15 18 17 14 13 15 18 19 19 20 24 19 17 10 15 22 20 18 21 25 27 25 20 14 14
7 2 20 35 49 35 31 23 18 26 24 46 47 41 29 19 12 12 10 10 12 12 9 5 11 26 26 21 23 22 18 15 18 20 27 25 22 14 17 24 24 23 27 32 30 29 21 12 14
2 8 17 31 37 36 30 10 25 22 42 52 48 39 31 25 20 20 12 9 13 12 9 6 6 18 28 28 24 18 14 14 13 20 32 27 23 19 20 24 24 25 25 33 34 33 23 18 15
8 9 8 15 28 13 34 4 12 40 54 56 48 39 35 31 27 22 13 11 12 12 9 8 5 11 15 14 12 15 11 10 11 20 32 29 23 22 22 24 26 26 28 32 35 25 22 18 15
8 8 9 10 24 21 19 15 22 52 60 60 56 49 45 40 35 29 23 17 14 12 10 10 10 12 16 15 13 6 4 5 10 14 26 30 25 22 21 25 23 25 32 35 29 27 21 16 15
11 3 6 4 24 11 12 11 27 63 57 58 62 58 53 49 48 43 36 26 16 13 13 12 12 15 16 19 14 14 11 10 12 14 22 29 25 26 28 27 27 28 34 33 31 27 26 20 14
10 4 9 11 13 14 18 25 15 65 62 56 59 61 63 61 61 50 44 35 25 16 15 12 12 17 17 17 16 22 20 14 13 14 19 26 22 28 32 33 29 29 31 32 30 28 24 22 12
8 4 10 5 13 14 21 21 14 54 54 45 50 63 71 74 65 58 50 42 34 26 21 15 11 13 17 17 18 21 21 16 14 15 16 19 20 25 31 36 34 30 29 32 33 30 27 21 11
8 5 10 9 7 5 3 6 14 43 63 49 42 48 68 72 70 66 60 55 46 32 23 20 13 12 16 20 23 21 26 23 19 16 14 15 19 22 27 34 36 30 25 25 33 31 30 30 25
7 11 11 9 4 5 2 9 12 3 18 37 39 40 62 77 80 75 75 70 56 41 25 21 17 16 16 17 22 27 25 30 23 18 16 17 21 19 24 32 36 30 23 22 27 32 31 28 25
8 16 8 7 6 2 7 7 11 6 12 23 40 60 59 74 82 87 85 80 65 47 25 27 22 17 15 18 20 26 25 25 25 19 23 22 21 18 19 28 33 29 22 21 23 26 27 29 26
4 16 7 5 6 5 7 7 14 3 9 15 42 63 61 66 72 93 94 89 68 50 32 29 27 22 16 16 19 20 24 25 24 26 25 21 20 18 18 24 28 26 21 22 22 21 22 24 28
15 11 12 7 7 8 7 6 10 7 9 11 13 26 46 66 76 80 84 86 76 54 43 36 35 27 17 13 13 19 22 23 24 27 25 22 19 20 22 26 25 27 26 18 18 23 20 22 22
14 10 7 10 9 9 3 1 17 11 16 22 20 44 47 30 51 78 79 74 74 60 42 45 42 34 21 11 6 12 14 16 16 19 25 28 28 28 26 30 27 25 27 22 20 23 27 25 22
4 9 10 8 4 9 7 7 11 7 19 13 15 20 31 35 36 54 70 67 54 51 5 66 52 38 27 14 7 7 11 11 14 17 18 20 20 22 24 29 26 25 26 25 19 22 29 31 26
6 3 10 10 4 5 5 13 17 3 10 23 14 27 28 33 34 47 61 60 69 59 19 26 57 41 28 21 19 12 12 14 16 16 17 18 19 22 25 26 27 29 29 28 28 30 31 32 31
5 7 7 6 1 6 9 9 10 9 5 2 10 13 24 27 32 40 47 47 53 55 42 8 35 40 29 26 25 18 15 15 17 19 18 20 20 23 26 27 29 31 33 34 34 35 35 40 39
4 3 12 9 8 9 4 13 11 10 3 13 8 17 27 24 26 31 35 34 25 46 55 39 39 33 33 31 30 27 21 17 20 25 26 26 26 25 29 29 30 31 32 31 36 39 41 43 44
4 7 10 9 8 1 6 13 5 8 11 14 2 12 20 20 28 20 24 29 20 22 39 55 44 30 31 29 32 34 29 24 24 27 28 30 32 30 33 33 34 35 36 36 39 45 47 50 53
Wind_Direction_850mb
78 53 67 71 66 66 3 317 76 173 50 86 116 101 93 46 78 182 143 132 116 68 47 54 50 30 6 356 343 339 336 330 327 328 328 333 334 341 342 340 337 330 325 319 318 307 296 285 284
89 63 61 58 71 48 317 336 47 79 125 100 83 78 65 54 93 129 143 125 107 55 66 56 47 40 25 15 6 360 347 335 330 332 330 330 337 345 341 337 328 321 316 310 308 307 290 290 279
72 84 65 78 81 101 198 14 133 126 140 134 101 61 58 99 112 114 119 115 82 71 65 42 32 24 18 26 18 2 345 333 326 325 322 327 333 346 342 347 349 349 333 312 304 311 303 307 309
31 75 75 72 49 254 187 194 128 114 93 106 106 70 82 106 103 119 104 105 107 106 73 37 8 6 348 15 3 1 346 336 320 310 317 329 332 338 352 6 17 22 29 38 31 4 328 308 301
36 57 56 50 10 5 44 93 294 76 83 97 113 121 93 120 131 122 122 122 139 147 130 31 357 357 355 3 6 7 3 359 333 313 307 310 326 344 7 24 27 21 30 42 33 27 23 355 326
44 51 62 45 8 337 20 101 57 112 115 109 114 107 77 132 142 138 139 143 163 194 194 234 13 32 19 17 17 16 9 12 353 328 314 322 323 326 4 32 28 9 10 26 9 13 14 14 13
88 74 113 158 27 309 181 229 251 207 140 117 131 78 116 149 147 139 134 128 177 309 321 309 318 1 341 357 2 8 9 2 357 342 300 327 331 336 0 1 6 347 349 2 350 334 326 333 328
109 84 105 196 176 239 193 184 190 344 26 124 122 142 152 143 157 144 141 334 321 326 329 324 306 204 232 284 339 357 7 356 356 354 302 298 309 312 308 322 331 326 328 326 319 308 317 324 281
108 70 169 192 162 221 175 132 237 231 140 58 73 146 151 147 152 156 181 325 341 329 327 324 288 223 205 269 292 4 359 355 350 355 313 303 302 285 286 301 299 308 317 318 315 310 315 318 282
84 106 209 188 171 172 167 175 153 142 130 103 108 131 149 154 162 166 116 357 347 331 319 308 283 209 231 239 308 4 2 348 353 15 358 333 325 280 291 299 304 307 312 307 311 324 328 312 259
149 180 183 197 167 160 158 189 168 150 210 163 151 158 168 180 195 275 345 332 326 319 302 289 229 205 211 212 245 330 344 338 348 2 7 354 337 282 298 304 316 327 316 315 311 310 316 307 275
121 229 179 162 179 162 168 175 156 154 195 177 170 170 173 185 205 310 312 313 316 321 311 291 224 223 220 236 270 298 313 320 344 360 5 357 346 329 319 325 333 331 323 323 320 325 318 273 269
56 159 196 177 165 180 166 188 170 213 172 173 169 172 183 202 239 266 284 309 323 323 313 297 212 227 239 246 269 280 286 314 342 359 3 355 345 327 332 328 328 320 326 331 332 332 327 288 264
188 113 123 178 183 166 173 186 173 197 177 174 177 189 209 235 241 235 252 281 322 319 304 276 221 217 227 243 259 257 272 317 348 0 0 355 345 335 333 332 335 332 331 340 337 332 325 317 283
74 62 30 163 160 172 153 300 229 176 178 178 186 204 224 235 234 236 251 269 295 316 317 307 269 225 212 214 240 243 275 326 4 3 359 357 350 349 335 332 338 343 344 340 335 332 323 319 303
101 66 157 213 188 179 159 251 208 175 178 187 194 209 224 231 237 232 240 250 278 306 317 302 267 240 211 182 173 208 286 353 353 342 357 360 4 1 356 351 357 357 350 348 349 351 345 328 313
36 218 237 219 216 151 207 260 193 184 190 197 202 209 222 227 228 230 235 243 266 294 313 306 272 231 210 200 191 216 249 279 298 323 347 356 7 12 10 8 2 359 357 1 3 3 3 360 352
241 232 242 217 198 175 204 253 180 191 198 202 209 215 219 226 235 230 233 237 248 274 284 287 266 229 224 231 222 220 230 250 271 297 332 351 2 11 11 14 5 0 6 14 16 14 9 10 30
169 160 263 236 214 161 220 242 220 200 211 209 208 217 220 228 235 231 231 237 242 257 260 275 268 244 238 234 222 228 230 249 270 277 315 343 351 358 4 8 4 0 6 16 22 19 19 29 73
161 198 254 310 40 112 250 311 311 198 212 209 217 224 227 231 232 232 230 236 239 249 255 264 287 270 252 242 235 234 234 249 267 267 292 319 328 336 350 1 2 357 3 15 24 30 28 22 26
210 185 228 179 87 56 341 312 330 315 222 221 227 244 237 238 237 232 232 235 236 235 246 267 288 293 261 240 238 226 235 241 259 260 284 298 311 316 337 353 359 353 0 14 23 28 27 32 26
240 198 161 148 108 248 32 287 289 321 299 250 240 235 238 242 237 239 234 233 232 233 229 253 259 281 276 247 240 237 246 251 264 260 282 289 303 299 321 344 355 349 351 4 12 15 20 26 22
272 69 56 91 121 79 357 55 274 54 274 246 252 255 253 250 253 242 239 237 231 226 226 244 243 253 274 256 248 247 247 247 253 261 276 278 288 283 301 332 350 350 341 359 11 3 4 8 13
153 76 54 47 59 26 282 106 286 265 238 301 286 306 308 267 251 248 245 239 228 218 226 232 235 240 259 256 247 254 256 264 259 256 275 279 295 287 293 321 336 348 345 339 358 9 353 349 352
51 66 5 7 1 226 28 45 242 259 242 236 319 318 323 333 263 244 239 234 227 218 230 234 237 238 246 260 268 262 267 270 272 254 277 281 293 300 301 309 318 326 335 335 328 338 348 343 329
70 128 138 248 252 272 6 248 269 240 329 42 29 340 337 333 299 255 244 227 224 212 224 259 250 245 245 275 296 279 293 307 303 290 286 296 293 305 314 307 309 318 313 329 323 315 317 323 332
170 73 164 108 16 38 261 289 314 8 28 44 14 20 347 339 308 267 245 227 226 203 230 295 252 253 260 294 303 315 322 330 337 326 313 317 308 309 308 316 300 304 309 299 299 301 304 304 307
129 123 41 21 351 305 294 288 241 303 189 15 22 350 329 314 297 266 241 235 232 216 223 288 283 256 260 279 292 299 313 330 339 343 336 323 322 313 308 313 305 301 300 301 299 298 299 295 295
344 36 56 108 126 171 275 277 212 272 220 199 265 319 324 321 319 278 253 230 238 215 220 228 262 280 256 268 294 284 287 312 323 335 335 331 324 321 314 315 311 304 300 298 295 296 299 295 296
160 157 135 123 240 222 153 276 18 99 118 169 268 320 340 345 353 299 231 220 266 256 232 235 251 280 263 267 289 279 279 293 311 326 331 331 326 321 317 314 312 312 308 303 298 299 298 295 295